DW4326 Weather Reports


time (UTC)temp
F
wind
direction
speed
knots
gust
knots
rain 1hr
in
rain 24hr
in
rain mn
in
humidity
%
barometer
mb
20260901200127 65 248 0.0 0.0 0.01 0.33 0.33 93 1017.1
20260901194627 65 248 0.0 0.0 0.01 0.33 0.33 91 1017.2
20260901193128 65 248 0.0 0.0 0.01 0.33 0.33 90 1017.2
20260901191627 65 248 0.0 0.0 0.01 0.33 0.33 90 1017.1
20260901190126 65 248 0.0 0.0 0.00 0.32 0.32 90 1017.3
20260901184626 65 252 0.0 0.0 0.00 0.32 0.32 89 1017.4
20260901183123 64 252 0.0 0.0 0.00 0.32 0.32 89 1017.3
20260901181623 64 252 0.0 0.0 0.00 0.32 0.32 94 1017.4
20260901180816 63 329 0.0 0.0 0.00 0.32 0.32 95 1017.3
20260901174622 63 329 0.0 0.0 0.00 0.32 0.32 94 1017.3
20260901173122 63 329 0.0 0.0 0.00 0.32 0.32 91 1017.2
20260901171623 62 329 0.0 0.0 0.00 0.32 0.32 95 1017.2
20260901170123 62 329 0.0 0.0 0.00 0.32 0.32 96 1017.2
20260901165319 62 329 0.0 0.0 0.00 0.32 0.32 95 1017.4
20260901163819 62 329 0.0 0.0 0.00 0.32 0.32 96 1017.4
20260901161620 62 329 0.0 0.0 0.00 0.32 0.32 96 1017.3
20260901160117 61 329 0.0 0.0 0.00 0.32 0.32 97 1017.3
20260901154616 61 329 0.0 0.0 0.00 0.32 0.32 97 1017.4
20260901153809 61 329 0.0 0.0 0.00 0.32 0.32 96 1017.8
20260901152317 61 329 0.0 0.0 0.00 0.32 0.32 97 1018.0
20260901150118 61 329 0.0 0.0 0.00 0.32 0.32 98 1017.9
20260901144614 60 329 0.0 0.0 0.01 0.32 0.32 97 1017.8
20260901143115 60 329 0.0 0.0 0.01 0.32 0.32 97 1017.8
20260901141612 60 329 0.0 0.0 0.02 0.32 0.32 97 1017.3
20260901140112 60 329 0.0 0.0 0.02 0.32 0.32 98 1017.1
20260901135314 60 329 0.0 0.0 0.02 0.31 0.31 98 1017.4
20260901133111 59 329 0.0 0.0 0.03 0.31 0.31 97 1017.4
20260901131608 59 329 0.0 0.0 0.04 0.30 0.30 98 1017.9
20260901130109 59 329 0.0 0.0 0.07 0.30 0.30 97 1017.8
20260901124606 59 329 0.0 0.0 0.10 0.29 0.29 97 1017.8
20260901123105 58 329 0.0 0.0 0.13 0.28 0.28 97 1018.0
20260901121603 58 329 0.0 0.0 0.15 0.26 0.26 97 1017.9
20260901120059 58 329 0.0 0.0 0.16 0.23 0.23 97 1018.0
20260901114559 58 329 0.0 0.0 0.14 0.19 0.19 97 1018.1
20260901113058 58 329 0.0 0.0 0.12 0.15 0.15 97 1017.8
20260901111601 58 329 0.0 0.0 0.10 0.11 0.11 97 1017.9
20260901110100 58 329 0.0 0.0 0.07 0.07 0.07 96 1017.8
20260901104557 58 329 0.0 0.0 0.05 0.05 0.05 96 1017.4
20260901103057 59 329 0.0 0.0 0.03 0.03 0.03 96 1017.3
20260901101556 58 329 0.0 0.0 0.01 0.01 0.01 96 1017.2
20260901100056 58 329 0.0 0.0 0.00 0.00 0.00 95 1016.9
20260901094557 58 329 0.0 0.0 0.00 0.00 0.00 95 1017.0
20260901093056 58 329 0.0 0.0 0.00 0.00 0.00 95 1017.2
20260901091556 58 329 0.0 0.0 0.00 0.00 0.00 95 1016.9
20260901090056 58 330 0.0 0.0 0.00 0.00 0.00 95 1017.0
20260901084556 58 330 0.0 0.0 0.00 0.00 0.00 95 1017.0
20260901083055 58 330 0.0 0.0 0.00 0.00 0.00 95 1016.9
20260901081555 58 330 0.0 0.0 0.00 0.00 0.00 95 1016.9
20260901080054 58 330 0.0 0.0 0.00 0.00 0.00 95 1017.1
20260901074551 58 330 0.0 0.0 0.00 0.00 0.00 95 1017.1
20260901073053 58 330 0.0 0.0 0.00 0.01 0.00 95 1016.9
20260901072248 58 330 0.0 0.0 0.00 0.01 0.00 95 1017.1
20260901070052 58 330 0.0 0.0 0.00 0.01 0.00 95 1017.2
20260901064550 58 330 0.0 0.0 0.00 0.01 0.00 95 1017.3
20260901063746 58 330 0.0 0.0 0.00 0.01 0.00 95 1017.5
20260901062254 58 330 0.0 0.0 0.00 0.01 0.00 95 1017.4
20260901060056 58 330 0.0 0.0 0.00 0.01 0.00 95 1017.8
20260901054547 58 330 0.0 0.0 0.00 0.01 0.00 94 1017.8
20260901053045 58 330 0.0 0.0 0.00 0.01 0.00 94 1018.0
20260901051547 58 330 0.0 0.0 0.00 0.01 0.00 94 1017.9
20260901050045 58 330 0.0 0.0 0.00 0.01 0.00 94 1018.1
20260901044542 57 330 0.0 0.0 0.00 0.01 0.00 94 1018.1
20260901043041 57 330 0.0 0.0 0.00 0.01 0.00 94 1017.9
20260901041540 57 330 0.0 0.0 0.00 0.01 0.00 93 1017.9
20260901040039 58 330 0.0 0.0 0.00 0.01 0.00 92 1017.7
20260901034540 58 330 0.0 0.0 0.00 0.01 0.01 92 1017.5
20260901033038 58 330 0.0 0.0 0.00 0.01 0.01 92 1017.7
20260901031536 58 330 0.0 0.0 0.00 0.01 0.01 92 1017.5
20260901030035 58 330 0.0 0.0 0.00 0.01 0.01 91 1017.7
20260901025237 58 330 0.0 0.0 0.00 0.01 0.01 91 1017.5
20260901023031 58 330 0.0 0.0 0.00 0.01 0.01 91 1017.7
20260901021529 59 330 0.0 0.0 0.00 0.01 0.01 90 1017.7
20260901020026 59 330 0.0 0.0 0.00 0.01 0.01 90 1017.8
20260901014527 60 330 0.0 0.0 0.00 0.01 0.01 89 1017.8
20260901013028 60 330 0.0 0.0 0.00 0.01 0.01 88 1017.7
20260901011522 61 330 0.0 0.0 0.00 0.01 0.01 89 1017.8
20260901010023 62 330 0.0 0.0 0.00 0.01 0.01 88 1017.7
20260901004523 62 330 0.0 0.0 0.00 0.01 0.01 88 1017.5
20260901003023 63 330 0.0 0.0 0.00 0.01 0.01 89 1017.7
20260901001523 63 330 0.0 0.0 0.00 0.01 0.01 88 1017.8
20260901000717 63 330 0.0 0.0 0.00 0.01 0.01 87 1017.5
20260831234523 64 330 0.0 0.0 0.00 0.01 0.01 86 1017.7
20260831233023 64 330 0.0 0.0 0.00 0.02 0.01 84 1017.7
20260831231522 65 330 0.0 0.0 0.00 0.03 0.01 81 1017.8
20260831230022 66 330 0.0 0.0 0.00 0.03 0.01 81 1017.8
20260831224522 67 330 0.0 0.0 0.00 0.03 0.01 79 1017.9
20260831223021 68 330 0.0 0.0 0.00 0.03 0.01 76 1018.1
20260831221523 69 330 0.0 0.0 0.00 0.03 0.01 73 1017.9
20260831220022 70 330 0.0 0.0 0.00 0.03 0.01 72 1017.8
20260831214518 71 330 0.0 0.0 0.00 0.03 0.01 68 1017.9
20260831213016 72 330 0.0 1.7 0.00 0.03 0.01 65 1017.8
20260831211515 73 24 0.0 2.6 0.00 0.03 0.01 64 1017.9
20260831210013 73 50 0.0 0.0 0.00 0.03 0.01 61 1017.9
20260831204513 74 154 0.0 0.0 0.00 0.03 0.01 54 1017.9
20260831203013 74 323 0.0 0.0 0.00 0.03 0.01 58 1018.1
20260831201511 75 317 0.0 1.7 0.00 0.03 0.01 56 1018.2